STARLINK-35252, 65850

Orbit data source: Space-Track

STARLINK-35252, 65850 is a payload satellite owned by SpaceX/Seattle (US) in LEO that was launched on Mon, 29 Sep 2025 UTC via an FALCON 9 launch vehicle from the Air Force Western Test Range (AFWTR). Payload-class satellites include a variety of spacecraft equipped with specific instruments for various scientific and technological missions. These include communications satellites like Starlink; space stations such as the ISS; scientific satellites like the Hubble; Earth observation satellites from companies like Planet Labs, Umbra, and HawkEye 360; GPS; miniature CubeSats for education and research; and military/defense satellites.

Loading next visibility...
Identifier
65850, 2025-221AD
Orbit
LEO
Country
Flag of USUS
Related business
Manufacturer
SpaceX/Seattle
Mission
Operational Commercial Communications
Bus & Motor
STARLINK V2MO, Unknown motor
Mass
575 kg wet, ~530 kg dry
Launch date (UTC)
2025-09-29 (2 months ago)
Launch vehicle
FALCON 9
Launch site
Air Force Western Test Range (AFWTR)
Object type
Payload
Rocket body
Debris
Shape & HBR
Box + 2 Pan, 17.7 m
Radar Cross Section
36.964 m²

Expand to show TLE details & history
Last TLE update: 1 day ago

TLE from 1 day ago
0 STARLINK-35252
1 65850U 25221AD  25339.80765712  .00036161  00000-0  12272-2 0  9997
2 65850  53.1568 164.8381 0000958  76.4727 283.6381 15.30196474 11700
Epoch: 2025-12-05T19:23Z
TLE epoch observation values (Epoch: 2025-12-05T19:23:01.575Z)
Latitude
0.00004°
Longitude
159.23712°
Altitude
475.97 km
Speed
7.629 km/s
True Right ascension
10h 59m 21s
True Declination
0° 00' 00"
Sunlit
Object was in daylight at epoch
Visualization orbit readout
Latitude
Unknown
Longitude
Unknown
Altitude
Unknown
Speed
Unknown
Apparent Right ascension
Unknown
Apparent Declination
Unknown
Sunlit
N/A
Visualization observer readout
Local Sidereal Time
02:16:41
Azimuth
Unknown
Elevation
Unknown
Doppler factor
Unknown
Orbital elements
Apogee altitude
476.139 km
Perigee altitude
474.826 km
Semi-major axis
6,853.62 km
Eccentricity
0.0001
Inclination
53.1568°
RAAN
164.8381°
Arg. of periapsis
76.4727°
True anomaly
283.62743°
Mean anomaly
283.6381°
Eccentric anomaly
283.63277°
Mean motion
3.82528 °/min
Orbital period
94.11 mins
BSTAR
0.0012272
Loading maneuver chart data...
Computing Atmospheric mass density...
Loading historical data...
Loading historical data...
Loading historical data...
Loading historical data...
Loading historical data...
Loading historical data...
Loading historical data...

Documentation

Showing up to 5 results
|